This is the latest recevied weather packets stored in our database for station/object OE5HCE. If no packets are shown the sender has not sent any weather packets the latest 10 day(s).
| Time | Temp. | Humidity | Pressure | Rain* | Wind** | Luminosity | Snow |
|---|---|---|---|---|---|---|---|
| 1787734842 | 18.89° C | 29% | 1019.9 hPa | 0 mm | - | 234 W/m² | - |
| 1787733941 | 18.33° C | 19% | 1020 hPa | 0 mm | - | 227 W/m² | - |
| 1787733033 | 17.78° C | 8% | 1019.9 hPa | 0 mm | - | 258 W/m² | - |
| 1787732128 | 17.22° C | 1% | 1019.6 hPa | 0 mm | - | 174 W/m² | - |
| 1787731225 | 17.22° C | 1% | 1019.7 hPa | 0 mm | - | 211 W/m² | - |
| 1787730319 | 16.11° C | 1% | 1019.5 hPa | 0 mm | - | 257 W/m² | - |
| 1787729421 | 16.11° C | 1% | 1019.4 hPa | 0 mm | - | 86 W/m² | - |
| 1787728510 | 15.56° C | 1% | 1019.3 hPa | 0 mm | - | 125 W/m² | - |
| 1787727608 | 15.56° C | 1% | 1019.3 hPa | 0 mm | - | 88 W/m² | - |
| 1787726700 | 15.56° C | 1% | 1019.1 hPa | 0 mm | - | 116 W/m² | - |
| 1787725858 | 15° C | 1% | 1019 hPa | 0 mm | - | 113 W/m² | - |
| 1787724955 | 15° C | 1% | 1019 hPa | 0 mm | - | 128 W/m² | - |
| 1787724048 | 14.44° C | 1% | 1018.9 hPa | 0 mm | - | 162 W/m² | - |
| 1787723144 | 14.44° C | 1% | 1018.8 hPa | 0 mm | - | 102 W/m² | - |
| 1787722244 | 13.89° C | 1% | 1018.7 hPa | 0 mm | - | 30 W/m² | - |
| 1787721335 | 13.89° C | 1% | 1018.6 hPa | 0 mm | - | 23 W/m² | - |
| 1787720430 | 13.89° C | 1% | 1018.7 hPa | 0 mm | - | 30 W/m² | - |
| 1787719525 | 13.89° C | 1% | 1018.6 hPa | 0 mm | - | 18 W/m² | - |
| 1787718620 | 13.89° C | 1% | 1018.4 hPa | 0 mm | - | 7 W/m² | - |
| 1787717716 | 14.44° C | 1% | 1018.3 hPa | 0 mm | - | 0 W/m² | - |
| 1787716814 | 13.89° C | 1% | 1018.4 hPa | 0 mm | - | 0 W/m² | - |
| 1787715907 | 13.89° C | 1% | 1018.3 hPa | 0 mm | - | 0 W/m² | - |
| 1787715002 | 13.89° C | 2% | 1018.3 hPa | 0 mm | - | 0 W/m² | - |
| 1787714159 | 13.89° C | 4% | 1018.2 hPa | 0.25 mm | - | 0 W/m² | - |
| 1787713253 | 13.89° C | 4% | 1018.3 hPa | 0.25 mm | - | 0 W/m² | - |
* Rain latest hour (hover to see other rain measurements)
** Current wind speed in m/s (hover to see current wind gust speed)